Location: Broekland
(52.3610°N, 6.2005°E)
Time: 19:40:05
(UTC+00:00)

ARIANE 6 FM1 Upper Stage - Pass Details

Date: 19 May 2025
Orbit: 530 x 611 km, 62.0° (Epoch: 20 June)

Event Time Altitude Azimuth Distance (km) Brightness Sun altitude
Rises 20:18:26 0° 209° (SSW) 2,662 6.0 -6.4°
Reaches altitude 10° 20:20:40 10° 203° (SSW) 1,776 5.0 -6.6°
Maximum altitude 20:24:28 46° 131° (SE) 728 2.8 -7.0°
Drops below altitude 10° 20:28:21 10° 57° (ENE) 1,803 5.2 -7.4°
Sets 20:30:37 0° 52° (NE) 2,707 6.1 -7.7°
